2021-05-27 00:01:20 r, 19.37m,0000000001Hz,0000305299c,0000000.663s, 014.1C,00002191
2021-05-27 00:11:22 r, 19.40m,0000000002Hz,0000315070c,0000000.684s, 013.8C,00002191
2021-05-27 00:21:20 r, 19.17m,0000000002Hz,0000252768c,0000000.549s, 013.8C,00002191
2021-05-27 00:31:20 r, 19.02m,0000000002Hz,0000220676c,0000000.479s, 013.5C,00002191
2021-05-27 00:41:20 r, 19.19m,0000000001Hz,0000257165c,0000000.558s, 013.5C,00002191
2021-05-27 00:51:21 r, 19.26m,0000000002Hz,0000275555c,0000000.598s, 013.5C,00002191
2021-05-27 01:01:20 r, 19.30m,0000000002Hz,0000286140c,0000000.621s, 013.5C,00002191
2021-05-27 01:11:21 r, 19.31m,0000000002Hz,0000290020c,0000000.629s, 013.5C,00002191
2021-05-27 01:21:20 r, 19.31m,0000000002Hz,0000289176c,0000000.628s, 013.5C,00002191
2021-05-27 01:31:20 r, 19.30m,0000000001Hz,0000287970c,0000000.625s, 013.5C,00002191
2021-05-27 01:41:22 r, 19.13m,0000000002Hz,0000242916c,0000000.527s, 013.2C,00002191
2021-05-27 01:51:21 r, 18.90m,0000000002Hz,0000196919c,0000000.427s, 013.2C,00002191
2021-05-27 02:01:20 r, 18.79m,0000000003Hz,0000178589c,0000000.388s, 012.8C,00002191
2021-05-27 02:11:22 r, 18.73m,0000000003Hz,0000168911c,0000000.367s, 012.8C,00002191
2021-05-27 02:21:20 r, 18.53m,0000000003Hz,0000143192c,0000000.311s, 012.8C,00002191
2021-05-27 02:31:20 r, 18.67m,0000000003Hz,0000161436c,0000000.350s, 012.8C,00002191
2021-05-27 02:41:20 r, 18.65m,0000000003Hz,0000158438c,0000000.344s, 012.8C,00002191
2021-05-27 02:51:21 r, 18.55m,0000000003Hz,0000144873c,0000000.314s, 012.8C,00002191
2021-05-27 03:01:20 r, 18.26m,0000000004Hz,0000110495c,0000000.240s, 012.8C,00002191
2021-05-27 03:11:21 r, 18.22m,0000000005Hz,0000106829c,0000000.232s, 012.8C,00002191
2021-05-27 03:21:20 r, 18.40m,0000000004Hz,0000125939c,0000000.273s, 012.8C,00002191
2021-05-27 03:31:20 r, 18.58m,0000000004Hz,0000149223c,0000000.324s, 012.8C,00002191
2021-05-27 03:41:20 r, 18.49m,0000000004Hz,0000137165c,0000000.298s, 012.8C,00002191
2021-05-27 03:51:22 r, 18.33m,0000000004Hz,0000118074c,0000000.256s, 012.5C,00002191
2021-05-27 04:01:20 r, 17.92m,0000000006Hz,0000081299c,0000000.176s, 012.5C,00002191
2021-05-27 04:11:22 r, 17.50m,0000000009Hz,0000054827c,0000000.119s, 012.5C,00002191
2021-05-27 04:21:20 r, 16.76m,0000000016Hz,0000027765c,0000000.060s, 012.5C,00002191
2021-05-27 04:31:20 r, 15.65m,0000000046Hz,0000009992c,0000000.022s, 012.5C,00002191
2021-05-27 04:41:22 r, 14.29m,0000000163Hz,0000000000c,0000000.000s, 012.5C,00002191
2021-05-27 04:51:20 r, 12.81m,0000000638Hz,0000000000c,0000000.000s, 012.5C,00002191
2021-05-27 05:01:20 r, 11.27m,0000002639Hz,0000000000c,0000000.000s, 012.5C,00002191
2021-05-27 05:11:20 r, 09.71m,0000011038Hz,0000000000c,0000000.000s, 012.5C,00002191
2021-05-27 05:21:21 r, 08.42m,0000036483Hz,0000000000c,0000000.000s, 012.5C,00002191
2021-05-27 05:31:20 r, 07.52m,0000082944Hz,0000000000c,0000000.000s, 012.5C,00002191
2021-05-27 05:41:21 r, 06.98m,0000136739Hz,0000000000c,0000000.000s, 012.8C,00002191
2021-05-27 05:51:20 r, 06.35m,0000243496Hz,0000000000c,0000000.000s, 013.2C,00002191
2021-05-27 06:01:20 r, 05.97m,0000345238Hz,0000000000c,0000000.000s, 013.2C,00002191
2021-05-27 06:11:20 r, 00.00m,0000523729Hz,0000000000c,0000000.000s, 013.2C,00002191
2021-05-27 06:21:22 r, 00.00m,0000597915Hz,0000000000c,0000000.000s, 013.2C,00002191
2021-05-27 06:31:20 r, 00.00m,0000597696Hz,0000000000c,0000000.000s, 013.5C,00002191
2021-05-27 06:41:22 r, 00.00m,0000597826Hz,0000000000c,0000000.000s, 013.8C,00002191
2021-05-27 06:51:21 r, 00.00m,0000597712Hz,0000000000c,0000000.000s, 014.1C,00002191
2021-05-27 07:01:20 r, 00.00m,0000597511Hz,0000000000c,0000000.000s, 014.5C,00002191
2021-05-27 07:11:22 r, 00.00m,0000597594Hz,0000000000c,0000000.000s, 014.8C,00002191
2021-05-27 07:21:20 r, 00.00m,0000597580Hz,0000000000c,0000000.000s, 015.7C,00002191
2021-05-27 07:31:20 r, 00.00m,0000597498Hz,0000000000c,0000000.000s, 016.1C,00002191
2021-05-27 07:41:20 r, 00.00m,0000597415Hz,0000000000c,0000000.000s, 016.4C,00002191
2021-05-27 07:51:21 r, 00.00m,0000597344Hz,0000000000c,0000000.000s, 017.0C,00002191
2021-05-27 08:01:20 r, 00.00m,0000597352Hz,0000000000c,0000000.000s, 018.0C,00002191
2021-05-27 08:11:20 r, 00.00m,0000597093Hz,0000000000c,0000000.000s, 019.3C,00002191
2021-05-27 08:21:22 r, 00.00m,0000596884Hz,0000000000c,0000000.000s, 021.5C,00002191
2021-05-27 08:31:20 r, 00.00m,0000596745Hz,0000000000c,0000000.000s, 023.5C,00002191
2021-05-27 08:41:20 r, 00.00m,0000596456Hz,0000000000c,0000000.000s, 025.1C,00002191
2021-05-27 08:51:20 r, 00.00m,0000596261Hz,0000000000c,0000000.000s, 026.4C,00002191
2021-05-27 09:01:20 r, 00.00m,0000596189Hz,0000000000c,0000000.000s, 027.7C,00002191
2021-05-27 09:11:20 r, 00.00m,0000596064Hz,0000000000c,0000000.000s, 028.3C,00002191
2021-05-27 09:21:21 r, 00.00m,0000596090Hz,0000000000c,0000000.000s, 028.6C,00002191
2021-05-27 09:31:20 r, 00.00m,0000595826Hz,0000000000c,0000000.000s, 029.6C,00002191
2021-05-27 09:41:20 r, 00.00m,0000595780Hz,0000000000c,0000000.000s, 029.9C,00002191
2021-05-27 09:51:21 r, 00.00m,0000595677Hz,0000000000c,0000000.000s, 030.6C,00002191
2021-05-27 10:01:20 r, 00.00m,0000595631Hz,0000000000c,0000000.000s, 031.5C,00002191
2021-05-27 10:11:20 r, 00.00m,0000595427Hz,0000000000c,0000000.000s, 032.2C,00002191
2021-05-27 10:21:22 r, 00.00m,0000595307Hz,0000000000c,0000000.000s, 033.1C,00002191
2021-05-27 10:31:20 r, 00.00m,0000595187Hz,0000000000c,0000000.000s, 034.1C,00002191
2021-05-27 10:41:20 r, 00.00m,0000595171Hz,0000000000c,0000000.000s, 034.4C,00002191
2021-05-27 10:51:22 r, 00.00m,0000595106Hz,0000000000c,0000000.000s, 034.8C,00002191
2021-05-27 11:01:21 r, 00.00m,0000595205Hz,0000000000c,0000000.000s, 034.4C,00002191
2021-05-27 11:11:20 r, 00.00m,0000595116Hz,0000000000c,0000000.000s, 034.8C,00002191
2021-05-27 11:21:21 r, 00.00m,0000594860Hz,0000000000c,0000000.000s, 036.0C,00002191
2021-05-27 11:31:21 r, 00.00m,0000595142Hz,0000000000c,0000000.000s, 035.7C,00002191
2021-05-27 11:41:20 r, 00.00m,0000594766Hz,0000000000c,0000000.000s, 036.4C,00002191
2021-05-27 11:51:21 r, 00.00m,0000595053Hz,0000000000c,0000000.000s, 035.1C,00002191
2021-05-27 12:01:21 r, 00.00m,0000595163Hz,0000000000c,0000000.000s, 034.4C,00002191
2021-05-27 12:11:20 r, 00.00m,0000594594Hz,0000000000c,0000000.000s, 037.3C,00002191
2021-05-27 12:21:22 r, 00.00m,0000594346Hz,0000000000c,0000000.000s, 039.0C,00002191
2021-05-27 12:31:21 r, 00.00m,0000594394Hz,0000000000c,0000000.000s, 039.0C,00002191
2021-05-27 12:41:20 r, 00.00m,0000594526Hz,0000000000c,0000000.000s, 038.6C,00002191
2021-05-27 12:51:22 r, 00.00m,0000594288Hz,0000000000c,0000000.000s, 039.6C,00002191
2021-05-27 13:01:21 r, 00.00m,0000594040Hz,0000000000c,0000000.000s, 040.9C,00002191
2021-05-27 13:11:20 r, 00.00m,0000594445Hz,0000000000c,0000000.000s, 039.0C,00002191
2021-05-27 13:21:21 r, 00.00m,0000594204Hz,0000000000c,0000000.000s, 039.6C,00002191
2021-05-27 13:31:21 r, 00.00m,0000594606Hz,0000000000c,0000000.000s, 037.7C,00002191
2021-05-27 13:41:20 r, 00.00m,0000594439Hz,0000000000c,0000000.000s, 039.3C,00002191
2021-05-27 13:51:21 r, 00.00m,0000594182Hz,0000000000c,0000000.000s, 039.9C,00002191
2021-05-27 14:01:21 r, 00.00m,0000594139Hz,0000000000c,0000000.000s, 040.6C,00002191
2021-05-27 14:11:20 r, 00.00m,0000593931Hz,0000000000c,0000000.000s, 041.5C,00002191
2021-05-27 14:21:21 r, 00.00m,0000593729Hz,0000000000c,0000000.000s, 042.8C,00002191
2021-05-27 14:31:23 r, 00.00m,0000593829Hz,0000000000c,0000000.000s, 042.5C,00002191
2021-05-27 14:41:20 r, 00.00m,0000594099Hz,0000000000c,0000000.000s, 041.5C,00002191
2021-05-27 14:51:22 r, 00.00m,0000593903Hz,0000000000c,0000000.000s, 042.5C,00002191
2021-05-27 15:01:21 r, 00.00m,0000593759Hz,0000000000c,0000000.000s, 043.5C,00002191
2021-05-27 15:11:20 r, 00.00m,0000593971Hz,0000000000c,0000000.000s, 042.2C,00002191
2021-05-27 15:21:22 r, 00.00m,0000593772Hz,0000000000c,0000000.000s, 043.8C,00002191
2021-05-27 15:31:21 r, 00.00m,0000593667Hz,0000000000c,0000000.000s, 044.1C,00002191
2021-05-27 15:41:20 r, 00.00m,0000593731Hz,0000000000c,0000000.000s, 043.8C,00002191
2021-05-27 15:51:21 r, 00.00m,0000593648Hz,0000000000c,0000000.000s, 044.4C,00002191
2021-05-27 16:01:22 r, 00.00m,0000593719Hz,0000000000c,0000000.000s, 044.1C,00002191
2021-05-27 16:11:20 r, 00.00m,0000593778Hz,0000000000c,0000000.000s, 043.8C,00002191
2021-05-27 16:21:21 r, 00.00m,0000593811Hz,0000000000c,0000000.000s, 043.8C,00002191
2021-05-27 16:31:21 r, 00.00m,0000593903Hz,0000000000c,0000000.000s, 043.5C,00002191
2021-05-27 16:41:20 r, 00.00m,0000593810Hz,0000000000c,0000000.000s, 043.8C,00002191
2021-05-27 16:51:22 r, 00.00m,0000593995Hz,0000000000c,0000000.000s, 043.1C,00002191
2021-05-27 17:01:21 r, 00.00m,0000593955Hz,0000000000c,0000000.000s, 042.5C,00002191
2021-05-27 17:11:20 r, 00.00m,0000594009Hz,0000000000c,0000000.000s, 042.5C,00002191
2021-05-27 17:21:23 r, 00.00m,0000594107Hz,0000000000c,0000000.000s, 041.5C,00002191
2021-05-27 17:31:21 r, 00.00m,0000594249Hz,0000000000c,0000000.000s, 041.2C,00002191
2021-05-27 17:41:20 r, 00.00m,0000594452Hz,0000000000c,0000000.000s, 039.9C,00002191
2021-05-27 17:51:21 r, 00.00m,0000594523Hz,0000000000c,0000000.000s, 039.3C,00002191
2021-05-27 18:01:22 r, 00.00m,0000594600Hz,0000000000c,0000000.000s, 038.6C,00002191
2021-05-27 18:11:20 r, 00.00m,0000594751Hz,0000000000c,0000000.000s, 038.0C,00002191
2021-05-27 18:21:22 r, 00.00m,0000594814Hz,0000000000c,0000000.000s, 037.3C,00002191
2021-05-27 18:31:21 r, 00.00m,0000594865Hz,0000000000c,0000000.000s, 037.3C,00002191
2021-05-27 18:41:20 r, 00.00m,0000595018Hz,0000000000c,0000000.000s, 036.7C,00002191
2021-05-27 18:51:23 r, 00.00m,0000595189Hz,0000000000c,0000000.000s, 035.7C,00002191
2021-05-27 19:01:21 r, 00.00m,0000595206Hz,0000000000c,0000000.000s, 034.8C,00002191
2021-05-27 19:11:20 r, 00.00m,0000595301Hz,0000000000c,0000000.000s, 034.4C,00002191
2021-05-27 19:21:23 r, 00.00m,0000595378Hz,0000000000c,0000000.000s, 033.8C,00002191
2021-05-27 19:31:21 r, 00.00m,0000595421Hz,0000000000c,0000000.000s, 032.8C,00002191
2021-05-27 19:41:20 r, 00.00m,0000595586Hz,0000000000c,0000000.000s, 031.9C,00002191
2021-05-27 19:51:21 r, 00.00m,0000595698Hz,0000000000c,0000000.000s, 031.5C,00002191
2021-05-27 20:01:22 r, 00.00m,0000595840Hz,0000000000c,0000000.000s, 030.9C,00002191
2021-05-27 20:11:20 r, 00.00m,0000543098Hz,0000000000c,0000000.000s, 029.9C,00002191
2021-05-27 20:21:22 r, 00.00m,0000481831Hz,0000000000c,0000000.000s, 029.3C,00002191
2021-05-27 20:31:21 r, 00.00m,0000417332Hz,0000000000c,0000000.000s, 028.6C,00002191
2021-05-27 20:41:20 r, 05.97m,0000347595Hz,0000000000c,0000000.000s, 028.0C,00002191
2021-05-27 20:51:21 r, 06.27m,0000263306Hz,0000000000c,0000000.000s, 027.3C,00002191
2021-05-27 21:01:23 r, 06.63m,0000189375Hz,0000000000c,0000000.000s, 026.4C,00002191
2021-05-27 21:11:20 r, 07.12m,0000119635Hz,0000000000c,0000000.000s, 025.1C,00002191
2021-05-27 21:21:23 r, 07.83m,0000062514Hz,0000000000c,0000000.000s, 023.8C,00002191
2021-05-27 21:31:21 r, 08.79m,0000025705Hz,0000000000c,0000000.000s, 022.8C,00002191
2021-05-27 21:41:20 r, 10.08m,0000007874Hz,0000000000c,0000000.000s, 021.9C,00002191
2021-05-27 21:51:23 r, 11.62m,0000001888Hz,0000000000c,0000000.000s, 021.2C,00002191
2021-05-27 22:01:21 r, 13.19m,0000000448Hz,0000000000c,0000000.000s, 020.6C,00002191
2021-05-27 22:11:20 r, 14.77m,0000000104Hz,0000004465c,0000000.010s, 020.3C,00002191
2021-05-27 22:21:21 r, 16.25m,0000000027Hz,0000017293c,0000000.038s, 019.9C,00002191
2021-05-27 22:31:22 r, 17.39m,0000000009Hz,0000049717c,0000000.108s, 019.6C,00002191
2021-05-27 22:41:20 r, 18.33m,0000000004Hz,0000117948c,0000000.256s, 019.3C,00002191
2021-05-27 22:51:22 r, 19.14m,0000000002Hz,0000248517c,0000000.539s, 019.0C,00002191
2021-05-27 23:01:21 r, 19.80m,0000000001Hz,0000453960c,0000000.985s, 018.6C,00002191
2021-05-27 23:11:20 r, 20.26m,0000000001Hz,0000693195c,0000001.504s, 018.6C,00002191
2021-05-27 23:21:23 r, 20.50m,0000000001Hz,0000861109c,0000001.869s, 018.3C,00002191
2021-05-27 23:31:21 r, 20.53m,0000000001Hz,0000887045c,0000001.925s, 018.0C,00002191
2021-05-27 23:41:20 r, 20.46m,0000000001Hz,0000831123c,0000001.804s, 018.0C,00002191
2021-05-27 23:51:23 r, 20.35m,0000000001Hz,0000750990c,0000001.630s, 018.0C,00002191
